Wind_Speed
1 1 1 2 3 5 5 6 6 5 5 4 4 4 4 5 5 6 6 6 6 6 7 7 7 7 8 9 10 11 11 10 9 7 6 5 4 4 3 3 2 2 2 2 1 2 2 2 2
4 4 4 4 4 5 8 8 8 8 8 7 7 6 6 6 7 7 7 8 8 8 8 9 8 9 9 10 11 12 12 11 10 9 8 7 6 6 5 5 4 4 3 3 3 2 2 2 2
7 7 6 6 7 7 8 8 9 9 9 10 9 9 9 8 8 8 8 9 9 9 10 10 10 10 11 12 12 13 13 13 12 11 10 9 9 8 8 8 7 6 6 5 5 5 5 4 4
10 9 9 9 10 11 11 11 11 11 11 11 11 12 11 10 9 9 10 10 10 10 11 11 11 11 12 13 13 14 14 14 13 12 12 11 11 11 11 10 10 9 9 8 8 7 7 7 7
13 12 12 12 14 14 14 14 14 13 13 13 13 14 13 11 11 11 11 11 11 11 11 11 11 12 13 14 14 15 15 14 14 14 14 14 14 14 14 13 12 12 12 11 10 10 10 10 10
15 15 14 14 16 17 18 17 16 15 15 15 14 15 14 13 13 13 13 12 12 12 11 12 12 13 13 14 15 16 16 16 17 17 17 17 17 17 16 16 15 14 14 14 13 13 13 13 13
17 17 18 18 19 20 21 19 18 18 17 16 15 15 15 15 14 15 14 14 14 14 13 14 14 14 15 15 16 17 18 19 19 20 20 20 19 19 19 18 18 17 16 16 16 16 16 16 16
20 19 19 20 22 23 23 22 21 19 18 17 16 16 17 16 15 15 16 16 15 15 15 16 16 16 17 17 18 19 20 21 22 22 23 23 23 22 21 21 20 19 18 18 18 18 18 18 17
21 21 21 21 24 24 24 24 22 21 19 18 17 18 18 17 17 17 17 17 17 18 18 18 19 19 20 20 21 22 22 23 24 24 25 26 26 25 24 23 22 21 20 20 19 19 19 19 19
23 22 22 24 25 24 24 24 24 22 21 20 21 21 19 19 19 19 19 19 19 19 20 20 21 21 22 23 24 25 26 26 27 28 28 28 28 27 27 26 25 24 23 21 21 20 20 20 20
24 23 23 24 25 25 24 24 24 24 23 22 22 22 22 21 21 21 21 21 22 21 22 22 22 23 24 25 26 27 28 29 30 31 30 30 29 29 29 29 28 26 25 24 22 21 20 20 20
24 23 23 23 24 25 25 25 25 26 26 25 24 24 24 24 23 23 23 23 24 24 25 25 25 25 27 28 28 30 31 32 32 33 33 33 32 32 32 31 30 28 26 25 24 23 22 21 20
25 24 23 23 24 24 24 25 26 27 26 26 26 26 25 25 26 25 25 26 26 27 28 29 29 29 30 30 30 32 34 33 34 35 35 35 35 35 34 32 31 30 28 27 25 24 24 22 22
25 24 23 23 23 24 24 25 27 27 27 27 27 27 27 28 28 28 28 28 29 29 30 31 32 33 33 33 33 34 35 35 36 36 37 37 37 36 36 35 34 32 31 29 27 26 25 24 23
23 23 23 23 23 23 23 25 26 26 26 27 28 28 28 29 29 30 30 30 31 32 33 34 35 36 36 37 37 35 35 35 36 37 37 37 38 38 38 36 36 34 32 30 29 28 26 24 24
21 20 20 22 22 22 21 23 25 25 25 26 26 27 27 28 29 30 31 32 33 34 35 36 37 38 39 40 39 36 37 37 38 38 37 37 38 39 38 37 37 34 32 30 29 28 27 25 24
17 16 17 20 20 21 20 22 24 24 24 25 25 26 26 27 28 29 31 33 34 36 37 37 37 39 39 40 39 38 38 38 38 37 37 36 36 37 39 37 37 34 32 30 28 27 26 25 23
14 14 15 16 19 19 20 21 22 22 23 23 23 24 25 26 28 29 31 33 35 37 38 39 40 40 39 39 40 39 38 37 35 35 36 35 37 36 36 35 35 33 31 29 27 26 25 25 24
13 13 13 15 16 17 18 19 20 21 21 21 22 23 25 26 28 29 32 34 35 37 38 39 40 40 41 41 40 39 38 37 36 34 33 35 34 34 34 35 35 32 30 28 27 26 25 25 24
11 10 11 14 14 15 16 17 18 19 20 21 23 24 26 27 29 30 32 33 35 36 38 39 40 41 41 39 38 37 37 37 35 32 30 30 30 30 31 31 31 29 27 26 27 26 25 25 25
9 8 10 12 13 13 14 15 17 18 20 21 23 24 26 27 28 30 31 33 35 36 38 39 38 38 37 37 37 36 36 35 33 32 31 29 27 28 31 31 29 28 27 27 27 27 27 26 26
8 10 10 11 11 12 13 13 18 18 19 20 21 23 25 26 28 30 32 33 35 36 37 37 38 38 37 37 37 38 38 36 35 34 33 31 30 31 31 31 32 31 29 29 28 29 29 28 28
9 10 10 10 10 11 12 11 19 18 19 20 21 23 24 26 28 30 32 33 34 35 36 37 38 39 40 39 40 39 39 39 38 37 35 34 33 32 32 32 33 33 32 31 31 31 31 30 30
9 10 10 10 10 11 14 14 19 20 21 22 24 25 27 28 30 32 34 36 37 38 39 40 41 41 41 42 42 42 42 42 42 41 40 39 37 36 35 34 35 35 35 34 34 34 34 33 33
9 9 9 9 10 13 18 18 19 20 22 25 26 28 29 31 32 34 36 38 40 41 42 43 43 43 43 43 43 44 44 45 45 45 44 44 43 42 42 41 40 41 41 40 40 38 38 37 37
9 9 9 9 11 14 19 19 19 22 24 26 28 29 31 33 35 36 38 40 41 43 44 44 44 44 45 45 45 45 46 46 47 47 47 48 48 48 47 47 47 47 47 47 46 44 44 43 42
9 9 9 11 12 14 17 20 20 23 25 28 29 31 33 35 37 38 40 41 42 42 43 44 45 45 45 46 47 47 48 48 48 49 50 51 52 52 52 52 52 52 53 53 52 51 50 49 48
9 10 10 12 13 14 17 22 24 26 27 30 32 34 36 37 38 39 40 41 42 43 44 45 45 45 46 47 49 50 51 52 52 52 52 52 53 55 56 55 56 56 57 57 57 57 56 55 54
10 11 12 13 14 16 18 23 25 27 30 32 34 36 37 38 39 39 40 41 42 44 45 45 46 47 49 50 51 52 53 53 54 54 53 53 53 54 56 57 58 58 59 60 61 60 60 60 59
12 13 13 15 17 18 21 26 26 29 32 33 35 36 37 38 39 40 40 41 42 43 44 46 48 49 51 52 53 53 54 54 54 54 54 54 54 55 56 58 59 60 61 62 62 62 63 63 62
Wind_Direction
334 330 325 340 355 355 343 337 332 327 324 320 316 311 302 294 294 295 295 295 294 295 298 300 302 306 308 307 306 306 305 305 308 310 312 315 318 322 330 337 343 347 350 355 8 17 24 28 36
296 291 288 295 320 327 309 315 318 322 322 323 318 308 300 294 290 292 295 296 295 295 296 298 299 303 304 304 303 303 303 302 302 304 305 305 306 306 306 306 305 302 299 294 293 297 305 306 304
286 284 281 284 289 283 289 298 306 314 318 319 317 311 307 302 296 295 294 294 294 292 292 294 295 299 301 302 301 300 300 299 297 298 300 301 301 300 299 297 295 292 288 281 276 274 277 277 275
281 282 282 282 284 284 285 287 293 301 308 311 312 309 307 303 300 298 297 295 294 292 290 291 293 297 299 300 299 298 296 295 294 294 296 297 297 296 294 291 289 286 281 276 273 268 265 265 265
278 278 280 282 281 283 286 287 288 292 301 305 304 303 301 299 297 297 298 295 293 292 291 291 293 296 297 297 297 296 293 291 292 293 294 294 293 292 290 289 287 284 280 275 272 268 264 261 260
275 278 275 273 277 281 283 284 287 290 297 302 304 302 299 295 295 296 296 294 294 294 292 292 294 295 296 294 294 294 291 290 291 291 291 291 291 290 288 287 286 284 281 277 272 268 265 262 260
271 272 271 271 273 277 279 282 285 289 292 296 297 298 297 295 292 293 294 292 293 294 294 295 295 293 292 292 291 293 291 289 290 290 289 289 288 287 286 284 283 283 280 277 272 268 264 262 259
269 270 270 270 271 272 277 279 281 284 287 289 289 291 292 291 288 289 290 291 293 296 296 295 293 290 289 288 287 288 289 287 288 289 288 287 286 284 283 282 281 281 279 277 274 269 266 262 259
269 268 267 266 267 269 273 276 278 282 283 284 283 283 288 286 285 287 287 291 292 294 295 293 291 289 287 285 285 286 287 286 285 287 288 286 285 283 280 280 279 278 278 276 274 269 266 263 260
270 268 265 265 268 269 271 272 275 277 279 279 280 280 283 286 286 286 287 290 292 294 294 293 292 289 287 286 285 286 287 286 283 283 284 283 283 281 279 279 277 277 277 275 273 269 266 263 261
273 270 267 267 269 270 269 269 271 272 272 272 275 278 282 285 285 285 285 288 289 291 292 292 291 289 287 287 286 285 286 286 283 281 279 278 278 278 278 280 277 276 275 273 271 267 264 262 261
275 273 271 270 270 270 269 268 268 268 268 270 272 276 279 282 285 285 284 285 287 288 288 289 289 290 288 286 287 286 284 284 284 283 280 277 276 275 276 277 274 274 273 271 270 267 262 261 261
276 275 274 273 272 271 270 268 267 267 268 268 271 272 272 274 277 279 283 285 287 288 288 288 287 287 286 284 285 286 284 282 280 279 277 276 276 275 273 273 272 271 269 267 267 266 262 260 259
278 277 276 275 274 274 272 271 270 270 270 270 271 270 270 270 271 275 278 281 283 284 285 286 284 284 284 282 282 282 283 281 278 278 276 274 274 274 271 269 269 268 265 263 262 262 260 258 258
278 279 279 277 277 277 277 276 274 274 273 272 272 272 270 269 270 272 274 277 279 280 282 283 283 284 283 283 284 283 281 282 280 278 275 274 273 272 270 266 266 265 262 261 259 259 259 259 257
279 281 280 281 281 280 279 276 279 278 277 275 275 274 273 272 271 271 272 274 276 279 279 281 282 283 283 283 283 282 281 279 278 278 275 273 272 270 269 265 264 261 259 259 256 255 257 258 255
280 278 278 282 284 283 280 277 281 280 279 278 278 276 274 273 271 271 271 272 274 277 277 280 282 285 286 285 283 282 281 279 276 276 273 272 273 270 266 262 261 258 255 256 254 253 253 253 252
272 275 277 279 284 284 282 281 282 282 281 280 280 279 277 275 273 273 273 274 275 276 278 280 284 285 285 285 283 283 284 283 280 278 273 271 271 269 264 259 259 256 253 252 251 250 250 249 249
274 278 279 281 285 286 285 284 284 284 283 282 281 279 277 276 275 275 275 276 277 280 282 284 286 287 286 285 283 284 283 283 284 283 276 270 269 267 262 258 256 255 249 248 246 245 245 245 246
282 284 286 288 289 289 288 287 287 285 284 283 282 281 280 280 279 281 281 280 282 283 284 286 287 288 287 285 283 282 281 281 284 284 282 275 269 265 258 256 254 247 242 243 241 240 242 243 243
290 285 284 290 298 299 299 301 296 291 288 287 286 284 284 284 284 285 286 287 286 286 287 287 288 290 291 287 284 283 283 284 283 282 281 277 272 265 256 254 251 243 240 240 241 239 240 241 240
285 286 289 297 305 300 303 301 301 301 298 295 293 291 290 290 289 289 289 289 291 290 289 289 290 290 291 289 286 284 284 283 284 284 282 279 274 265 256 254 246 243 240 239 241 240 239 240 239
274 286 295 299 300 299 302 299 295 301 301 300 298 297 296 295 294 294 294 293 293 293 292 293 293 292 290 289 287 285 284 283 282 282 280 278 272 264 257 254 249 245 241 240 241 240 240 240 240
292 298 304 310 309 293 292 296 292 300 300 300 299 299 298 297 296 295 295 296 294 294 295 295 294 293 292 290 289 286 284 283 281 280 277 275 270 265 260 257 252 248 246 244 243 242 241 239 239
300 308 311 306 299 286 291 295 295 300 301 302 302 301 299 298 297 297 297 297 296 296 296 295 294 293 292 290 287 285 283 281 279 277 275 272 268 264 260 257 254 250 249 247 245 244 242 241 240
304 300 291 287 290 294 299 300 304 305 306 307 306 304 301 300 300 299 299 298 298 297 297 296 295 294 292 290 288 285 282 280 277 275 273 271 268 264 261 258 254 251 248 247 246 244 243 242 241
308 306 300 303 303 307 304 309 310 309 310 309 308 307 307 306 304 303 302 301 301 299 298 297 296 295 294 291 289 287 284 281 278 275 273 270 268 265 261 257 254 252 249 248 247 245 244 242 242
314 316 315 313 309 309 308 309 314 313 313 312 311 310 310 309 308 307 306 305 304 302 301 299 298 296 294 293 291 288 285 282 279 275 272 269 267 264 262 258 255 252 250 249 247 246 245 243 243
327 328 326 324 323 320 313 310 318 316 315 314 313 313 313 312 310 309 308 308 307 305 304 302 300 299 297 295 293 290 287 284 280 276 273 269 266 263 260 258 255 253 251 249 248 247 246 244 243
333 334 334 329 326 324 321 316 321 319 318 317 317 316 316 315 314 313 312 311 310 310 308 306 305 303 301 299 296 293 289 285 282 278 274 270 267 264 261 258 256 254 252 249 247 246 245 244 243
Height
5933 5933 5933 5933 5934 5935 5934 5933 5932 5931 5931 5930 5929 5928 5927 5926 5926 5927 5924 5922 5922 5921 5920 5919 5919 5918 5917 5917 5916 5915 5914 5913 5912 5911 5910 5909 5909 5908 5907 5907 5906 5906 5905 5904 5904 5903 5903 5902 5901
5933 5933 5934 5934 5934 5936 5934 5933 5932 5931 5929 5928 5927 5927 5926 5925 5924 5923 5922 5921 5920 5919 5918 5918 5917 5917 5916 5915 5915 5914 5913 5912 5911 5910 5909 5908 5908 5907 5906 5906 5906 5905 5904 5904 5903 5903 5902 5902 5901
5932 5932 5933 5934 5934 5934 5933 5932 5931 5929 5928 5927 5926 5925 5924 5923 5922 5921 5920 5919 5918 5917 5917 5916 5915 5915 5914 5913 5913 5912 5911 5910 5909 5908 5907 5907 5906 5906 5905 5905 5904 5904 5903 5903 5902 5902 5901 5901 5900
5931 5932 5933 5933 5932 5932 5931 5930 5929 5928 5928 5926 5925 5924 5923 5922 5920 5919 5918 5917 5916 5915 5914 5913 5913 5912 5912 5911 5911 5910 5909 5908 5907 5906 5906 5905 5904 5904 5903 5903 5902 5902 5901 5901 5901 5900 5899 5899 5899
5930 5930 5931 5932 5931 5929 5929 5928 5928 5927 5926 5925 5924 5923 5921 5920 5918 5917 5916 5915 5914 5913 5912 5911 5910 5910 5909 5909 5908 5907 5906 5905 5905 5904 5903 5902 5902 5901 5901 5900 5900 5899 5899 5899 5898 5898 5897 5897 5897
5928 5929 5930 5930 5928 5927 5926 5926 5926 5925 5925 5923 5922 5921 5919 5918 5916 5915 5914 5913 5911 5910 5909 5908 5908 5907 5906 5906 5905 5904 5903 5902 5902 5901 5900 5899 5899 5898 5898 5897 5897 5896 5896 5896 5895 5895 5894 5894 5894
5926 5926 5926 5926 5925 5924 5924 5923 5923 5923 5922 5921 5920 5918 5916 5915 5914 5912 5911 5910 5909 5908 5907 5906 5905 5904 5903 5902 5902 5901 5900 5899 5898 5897 5896 5896 5895 5894 5894 5893 5893 5892 5892 5892 5891 5891 5891 5890 5890
5921 5923 5923 5923 5922 5921 5920 5920 5919 5919 5919 5918 5917 5916 5914 5913 5911 5910 5908 5907 5906 5905 5904 5903 5902 5901 5900 5899 5898 5897 5896 5895 5894 5893 5892 5891 5890 5890 5889 5889 5888 5888 5887 5887 5887 5887 5887 5886 5886
5917 5919 5919 5919 5917 5917 5916 5916 5916 5916 5916 5915 5913 5913 5911 5910 5908 5907 5906 5904 5903 5902 5901 5900 5898 5897 5896 5895 5894 5893 5892 5890 5889 5888 5887 5886 5886 5885 5884 5884 5884 5883 5883 5882 5883 5882 5882 5882 5881
5913 5914 5914 5913 5912 5912 5912 5911 5911 5912 5912 5911 5909 5908 5907 5906 5905 5904 5903 5901 5900 5899 5898 5896 5895 5894 5892 5890 5889 5888 5887 5885 5884 5883 5882 5881 5880 5879 5879 5879 5878 5878 5877 5877 5877 5877 5877 5876 5876
5908 5909 5908 5907 5907 5907 5907 5907 5907 5907 5907 5906 5905 5905 5904 5903 5902 5901 5899 5898 5896 5895 5894 5892 5891 5889 5888 5886 5885 5883 5881 5880 5878 5877 5875 5874 5874 5873 5873 5873 5872 5872 5871 5871 5871 5871 5871 5871 5871
5903 5903 5903 5902 5902 5901 5902 5902 5901 5901 5901 5901 5901 5900 5900 5899 5898 5897 5895 5894 5892 5891 5889 5888 5886 5885 5883 5881 5879 5877 5875 5873 5871 5870 5868 5867 5867 5866 5866 5866 5865 5865 5865 5865 5865 5866 5865 5865 5865
5897 5897 5897 5897 5897 5896 5896 5896 5895 5895 5895 5895 5895 5895 5895 5894 5893 5892 5891 5890 5888 5886 5885 5883 5881 5879 5877 5875 5873 5871 5869 5867 5864 5863 5861 5860 5860 5859 5859 5859 5859 5859 5859 5859 5860 5860 5860 5860 5859
5891 5892 5891 5891 5891 5891 5891 5890 5890 5890 5890 5890 5890 5889 5889 5888 5888 5887 5886 5885 5883 5881 5879 5877 5875 5873 5871 5868 5866 5864 5862 5860 5857 5855 5853 5853 5852 5852 5852 5852 5852 5852 5852 5853 5853 5854 5854 5854 5854
5886 5887 5887 5886 5886 5886 5886 5885 5884 5884 5884 5884 5883 5883 5883 5882 5881 5881 5880 5879 5877 5875 5872 5870 5868 5866 5864 5861 5858 5855 5853 5851 5849 5847 5845 5844 5843 5843 5843 5844 5844 5844 5844 5845 5846 5847 5847 5848 5849
5882 5883 5883 5881 5881 5881 5883 5881 5879 5878 5878 5877 5877 5877 5876 5876 5875 5874 5873 5872 5870 5868 5866 5863 5861 5858 5855 5853 5850 5847 5844 5842 5840 5837 5835 5834 5833 5833 5834 5835 5836 5836 5837 5838 5839 5840 5841 5842 5843
5879 5880 5879 5878 5876 5876 5877 5875 5874 5873 5872 5872 5871 5871 5870 5870 5868 5867 5866 5865 5863 5861 5858 5856 5853 5850 5847 5844 5841 5838 5835 5832 5829 5827 5825 5824 5824 5824 5824 5826 5827 5828 5829 5830 5832 5833 5835 5836 5837
5876 5876 5875 5874 5872 5872 5871 5870 5869 5868 5867 5866 5865 5865 5864 5863 5862 5861 5860 5858 5856 5854 5851 5848 5845 5842 5838 5835 5832 5829 5826 5822 5819 5817 5816 5815 5814 5814 5814 5816 5817 5819 5821 5823 5825 5827 5828 5829 5831
5872 5872 5872 5870 5869 5868 5867 5866 5864 5863 5862 5861 5860 5859 5858 5856 5855 5854 5852 5850 5848 5846 5843 5840 5837 5833 5829 5826 5823 5820 5817 5814 5811 5809 5807 5806 5805 5805 5805 5807 5809 5810 5812 5815 5817 5819 5821 5823 5824
5868 5869 5869 5867 5866 5864 5863 5861 5860 5858 5857 5856 5855 5853 5852 5850 5849 5847 5845 5842 5839 5837 5835 5831 5828 5824 5820 5817 5814 5811 5808 5805 5804 5802 5799 5797 5796 5796 5797 5799 5800 5802 5804 5807 5809 5812 5814 5815 5817
5866 5867 5866 5865 5862 5861 5860 5858 5856 5854 5852 5851 5849 5847 5846 5844 5842 5840 5837 5834 5831 5829 5826 5822 5819 5815 5812 5809 5806 5803 5800 5797 5796 5794 5792 5790 5788 5789 5790 5792 5794 5795 5797 5800 5802 5804 5806 5808 5810
5865 5863 5862 5861 5860 5860 5859 5858 5853 5850 5848 5846 5844 5842 5840 5837 5835 5832 5829 5826 5823 5820 5817 5813 5810 5807 5804 5801 5798 5795 5792 5789 5788 5786 5785 5783 5782 5782 5783 5785 5787 5788 5790 5792 5795 5797 5799 5801 5803
5861 5860 5859 5858 5857 5857 5856 5855 5850 5847 5844 5842 5839 5837 5834 5831 5828 5825 5822 5818 5815 5811 5808 5804 5801 5797 5794 5791 5788 5785 5782 5780 5779 5777 5776 5775 5775 5775 5776 5776 5778 5779 5781 5784 5786 5789 5791 5793 5795
5858 5857 5856 5856 5856 5855 5852 5851 5847 5843 5840 5838 5834 5831 5828 5825 5822 5818 5814 5810 5806 5802 5799 5795 5791 5787 5784 5781 5777 5775 5773 5770 5769 5767 5766 5765 5766 5766 5767 5767 5768 5770 5772 5774 5776 5779 5782 5784 5787
5856 5856 5856 5856 5855 5852 5848 5846 5843 5839 5836 5833 5829 5826 5822 5818 5814 5810 5806 5802 5797 5793 5788 5784 5781 5777 5773 5770 5766 5764 5761 5759 5757 5755 5754 5754 5754 5754 5755 5756 5757 5759 5761 5763 5765 5768 5771 5774 5777
5854 5853 5854 5853 5852 5849 5844 5841 5839 5834 5831 5827 5823 5819 5815 5811 5806 5802 5797 5793 5788 5783 5778 5773 5769 5765 5761 5757 5754 5751 5748 5746 5744 5742 5741 5740 5739 5740 5741 5742 5744 5746 5748 5750 5753 5755 5759 5762 5766
5851 5850 5849 5848 5847 5845 5842 5837 5833 5830 5826 5822 5817 5812 5808 5803 5798 5793 5787 5782 5777 5772 5767 5762 5757 5752 5748 5744 5740 5737 5734 5731 5729 5727 5726 5724 5724 5723 5724 5726 5728 5730 5733 5735 5738 5741 5745 5749 5753
5849 5848 5847 5845 5843 5842 5839 5833 5829 5824 5820 5816 5810 5805 5800 5795 5789 5783 5777 5772 5766 5760 5755 5750 5744 5739 5734 5730 5725 5721 5717 5714 5711 5710 5708 5707 5706 5706 5707 5708 5710 5712 5715 5718 5722 5725 5729 5734 5738
5847 5846 5843 5841 5839 5837 5834 5831 5825 5819 5815 5809 5804 5798 5792 5786 5780 5774 5768 5761 5755 5748 5742 5736 5731 5725 5719 5714 5709 5704 5699 5695 5692 5690 5689 5688 5688 5688 5688 5689 5691 5693 5696 5700 5704 5707 5712 5717 5722
5844 5843 5841 5839 5835 5832 5829 5827 5819 5813 5808 5803 5797 5790 5784 5777 5771 5764 5757 5751 5744 5737 5730 5724 5717 5710 5703 5696 5690 5685 5680 5675 5672 5669 5668 5668 5667 5667 5668 5669 5671 5673 5677 5680 5684 5689 5693 5698 5704